Regional Weather Roundup
Issued by NWS

Home | Current Version | Previous Version | Graphics & Text | Print | Product List | Glossary On
Versions: 1 2 3 4 5 6 7 8 9 10 11 12 13 14 15 16 17 18 19 20 21 22 23 24 25 26 27 28 29 30 31 32 33 34 35 36 37 38 39 40 41 42 43 44 45 46 47 48 49 50
000
ASUS45 KABQ 310510
RWRNM
NEW MEXICO REGIONAL WEATHER ROUNDUP
NATIONAL WEATHER SERVICE ALBUQUERQUE NM
1100 PM MDT THU JUL 30 2015

NOTE: "FAIR" MEANS FEW OR NO CLOUDS BELOW 12,000 FEET AGL WITH NO
       SIGNIFICANT WEATHER OR OBSTRUCTIONS TO VISION.

      THIS PRODUCT IS RELEASED AS TWO VERSIONS.  ONE VERSION NEAR
      THE TOP OF THE HOUR CONTAINING PRELIMINARY DATA FROM ALBUQUERQUE
      AND OTHER STATIONS.  A FINAL VERSION WITH ADDITIONAL DATA IS
      ISSUED ABOUT 10 MINUTES AFTER THE HOUR.

NMZ501-503-504-510>518-310600-
NORTHWEST PLATEAU/NORTHCENTRAL MOUNTAINS

CITY           SKY/WX    TMP DP  RH WIND       PRES   REMARKS
FARMINGTON     CLEAR     65  58  78 SW9       30.36R
LOS ALAMOS     CLOUDY    63  57  81 S7        30.50R
SANTA FE       CLOUDY    68  54  60 E12       30.43S
TAOS           CLOUDY    61  50  67 CALM      30.48R
ANGEL FIRE     CLOUDY    54  52  94 CALM      30.60R

$$
NMZ402-403-502-505>509-310600-
WESTCENTRAL MOUNTAINS/SOUTHWEST MOUNTAINS

CITY           SKY/WX    TMP DP  RH WIND       PRES   REMARKS
GALLUP         CLOUDY    63  55  75 E8        30.43R
GRANTS         CLOUDY    65  60  85 CALM      30.43S
SILVER CITY      N/A     72  63  73 E6        30.34R

$$
NMZ407-409-411-412-310600-
SOUTHERN DESERTS

CITY           SKY/WX    TMP DP  RH WIND       PRES   REMARKS
LORDSBURG      FAIR      77  64  65 SE6       30.22R
DEMING         MOCLDY    76  64  66 NE6       30.24R
LAS CRUCES     CLOUDY    76  68  76 NW3       30.25S
HOLLOMAN AFB   CLOUDY    79  58  48 N6        30.21R
ALAMOGORDO     MOCLDY    79  57  47 N8        30.24R
T OR C         CLOUDY    73  60  63 W7        30.29S

$$
NMZ519>523-310600-
CENTRAL VALLEYS/CENTRAL HIGHLANDS

CITY           SKY/WX    TMP DP  RH WIND       PRES   REMARKS
ALBUQUERQUE    MOCLDY    72  58  61 E3        30.35S
DOUBLE EAGLE   CLOUDY    67  64  90 CALM      30.39S
MORIARTY ARPT    N/A     62  59  89 CALM      30.44S
CLINES CORNERS NOT AVBL
BELEN          CLOUDY    70  61  73 CALM      30.34R
SOCORRO        MOCLDY    72  60  65 NW9       30.32R

$$
NMZ524>526-539-540-310600-
SOUTHCENTRAL MOUNTAINS

CITY           SKY/WX    TMP DP  RH WIND       PRES   REMARKS
RUIDOSO          N/A    N/A N/A N/A MISG        N/A

$$
NMZ527>531-310600-
NORTHEAST HIGHLANDS/NORTHEAST PLAINS

CITY           SKY/WX    TMP DP  RH WIND       PRES   REMARKS
LAS VEGAS      CLOUDY    59  57  93 N6        30.49S
RATON          CLOUDY    63  59  87 S7        30.43S
CLAYTON        MOCLDY    68  65  90 S5        30.35S

$$
NMZ532>537-310600-
EASTCENTRAL PLAINS

CITY           SKY/WX    TMP DP  RH WIND       PRES   REMARKS
TUCUMCARI      CLOUDY    72  65  78 CALM      30.29R
CANNON AFB     MOCLDY    70  67  89 E5        30.30R
CLOVIS AIRPORT MOCLDY    72  64  78 NE3       30.31S

$$
NMZ028-029-538-310600-
SOUTHEAST PLAINS

CITY           SKY/WX    TMP DP  RH WIND       PRES   REMARKS
ROSWELL        CLOUDY    78  63  59 N10       30.25S
ARTESIA        CLOUDY    77  68  73 N20       30.23R
CARLSBAD       MOCLDY    83  55  38 S3        30.15R
HOBBS          MOCLDY    81  63  54 NE13      30.23R


$$


USA.gov is the U.S. government's official web portal to all federal, state and local government web resources and services.